Tracking 31027 objects as of 19-Jul-2025
HD Live streaming from Space Station
objects crossing your sky now

ARIANE 5 DEB

Track ARIANE 5 DEB now!


NORAD ID: 43383
Int'l Code: 2008-030F
Perigee: 395.1 km
Apogee: 32,843.4 km
Inclination: 1.9 °
Period: 578.2 minutes
Semi major axis: 22990 km
RCS: Unknown
Launch date: June 12, 2008
Source: France (FR)
Launch site: FRENCH GUIANA (FRGUI)

Note: This is SATELLITE DEBRIS
Your satellite tracking list
MANDRAKE 2 ABLE
Track 1 satellite(s)




NASA's NSSDC Master Catalog

Two Line Element Set (TLE):
1 43383U 08030F   25199.23073422  .00077758  00000-0  14989+0 0  9995
2 43383   1.9046 160.8072 7056971 319.0497   5.2849  2.49050794139837
Source of the keplerian elements: AFSPC